Location: Byszew
(52.1813°N, 19.2693°E)
Time: 10:46:29
(UTC+00:00)

SPROUT - Pass Details

Date: 03 July 2022
Orbit: 588 x 598 km, 97.9° (Epoch: 17 August)

Event Time Altitude Azimuth Distance (km) Brightness Sun altitude
Exits shadow 23:10:42 22° 155° (SSE) 1,323 ? -14.7°
Maximum altitude 23:13:22 75° 74° (ENE) 615 ? -14.7°
Drops below altitude 10° 23:17:33 10° 348° (NNW) 1,932 ? -14.6°
Sets 23:19:44 0° 347° (NNW) 2,840 ? -14.6°
